Simultaneous Nadir Overpasses (SNOs) Predictions

Prediction of SNOs between FY3D and TERRA Satellite Orbit:

Table of predicted SNOs for the next 14.0 days since TLE Epoch: 3/25/2023
Index Date (FY3D) Time (FY3D) Lat,Lon (FY3D) SZA (FY3D ) Date (TERRA) Time (TERRA) Lat,Lon (TERRA) SZA (TERRA ) Distance(km) Time Diff (sec)
1 03/25/2023 22:57:13 73.09,-164.47 71.01 03/25/2023 22:57:43 73.07,-164.48 70.98 2.95 30
2 03/25/2023 23:47:56 -73.03, 2.98 109.07 03/25/2023 23:47:08 -73.01, 3.06 109.09 3.31 48
3 03/28/2023 11:01:19 -73.10,-165.47 109.97 03/28/2023 11:02:01 -73.12,-165.48 109.95 2.52 42
4 03/28/2023 11:52:05 73.04, 1.97 69.95 03/28/2023 11:51:24 73.01, 1.97 69.93 2.90 41
5 03/30/2023 23:05:28 73.13,-166.53 69.08 03/30/2023 23:06:16 73.12,-166.57 69.07 1.29 48
6 03/30/2023 23:56:11 -73.06, 0.93 111.00 03/30/2023 23:55:41 -73.07, 0.98 111.00 1.64 30
7 04/02/2023 11:09:34 -73.17,-167.61 111.85 04/02/2023 11:10:32 -73.18,-167.55 111.84 2.28 58
8 04/02/2023 12:00:19 73.06, -0.07 68.03 04/02/2023 11:59:55 73.07, -0.11 68.04 1.43 24
9 04/04/2023 23:13:42 73.19,-168.66 67.22 04/04/2023 23:14:45 73.18,-168.62 67.21 1.48 63
10 04/05/2023 00:04:25 -73.12, -1.19 112.87 04/05/2023 00:04:10 -73.12, -1.09 112.87 3.26 15
11 04/07/2023 11:17:47 -73.27,-169.82 113.66 04/07/2023 11:18:58 -73.24,-169.60 113.69 7.75 71
12 04/07/2023 12:08:31 73.11, -2.17 66.18 04/07/2023 12:08:21 73.13, -2.16 66.19 1.34 10



Historial Predications of SNOs between FY3D and TERRA
